Location: Beutels
(47.8767°N, 9.8584°E)
Time: 19:32:51
(UTC+00:00)

ISS - Pass Details

Date: 21 January 2026
Orbit: 413 x 429 km, 51.6° (Epoch: 11 February)

Event Time Altitude Azimuth Distance (km) Brightness Sun altitude
Rises 17:35:57 0° 281° (W) 2,363 1.3 -15.2°
Reaches altitude 10° 17:38:07 10° 289° (WNW) 1,502 0.0 -15.5°
Maximum altitude 17:41:20 42° 2° (N) 618 -3.1 -16.1°
Enters shadow 17:42:11 34° 41° (NE) 716 -3.0 -16.2°
